Tracking 19181 objects as of 18-Jun-2018
HD Live streaming from Space Station
objects crossing your sky now

IRIDIUM 75

Track IRIDIUM 75 now!
10-day predictions
IRIDIUM 75 is classified as:


NORAD ID: 25346
Int'l Code: 1998-032E
Perigee: 479.5 km
Apogee: 720.7 km
Inclination: 86.4 °
Period: 96.5 minutes
Semi major axis: 6971 km
RCS: 4.0637 m2 (large)
Launch date: May 17, 1998
Source: United States (US)
Launch site: AIR FORCE WESTERN TEST RANGE (AFWTR)
aabbcc
Your satellite tracking list
Your tracking list is empty




NASA's NSSDC Master Catalog

Two Line Element Set (TLE):
1 25346U 98032E   18168.44939699  .00000853  00000-0  60708-4 0  9990
2 25346  86.4030  71.4281 0172982 176.4756 183.7739 14.91606634 52028
Source of the keplerian elements: AFSPC